Location: Saratoga Springs
(43.0831°N, 73.7850°W)
Time: 12:33:31
(UTC-04:00)

Transit 4A - Pass Details

Date: 23 April 2024
Orbit: 871 x 971 km, 66.8° (Epoch: 20 May)

Event Time Altitude Azimuth Distance (km) Brightness Sun altitude
Rises 20:23:45 0° 334° (NNW) 3,469 11.8 -6.9°
Reaches altitude 10° 20:26:35 10° 346° (NNW) 2,527 10.8 -7.4°
Maximum altitude 20:31:36 29° 46° (NE) 1,552 8.9 -8.2°
Enters shadow 20:36:34 10° 105° (ESE) 2,512 9.5 -9.0°
